DECAYED

OBJECT F, 51829 (Decayed)

Orbit data source: Space-Track

You're viewing an Uncataloged Satellite

Recently launched and/or uncataloged satellites may have evolving metadata. Metadata may include but not limited to: Owner, Maufacturer, Bus, Motor, and Mission.

OBJECT F, 51829 was a satellite owned by Weina (CN) in LEO that was launched on Sun, 27 Feb 2022 UTC via a CHANG ZHENG 8 launch vehicle from the Wenchang Satellite Launch Center (WSC). Unknown objects in Earth's orbit typically refer to objects detected orbiting the Earth but have not yet been identified or cataloged. These objects could be anything from previously untracked satellites, spent rocket stages, debris from satellite collisions, or even natural meteoroids temporarily captured by Earth's gravity. This object's orbit decayed before it could be identified.

Not visible in the next 10 days
OBJECT F details
Identifier
51829, 2022-019F
Orbit
Decayed
Last TLE update4 months ago
Origin
Flag of CNWeina (CN / PRC)
ManufacturerWeina
MissionDecayed Commercial Imaging
Bus & MotorMN200, Unknown motor
Mass240 kg wet, 240 kg dry
Launch date (UTC)
2022-02-27 (3 years ago)
Launch vehicle
CHANG ZHENG 8
Launch site
Wenchang Satellite Launch Center (WSC)
Object typeUnknown
Shape & HBRBox + Cyl + 2 Pan, 5 m
Radar Cross Section2.585 m², Medium (>0.1 m² and < 1m²)

Expand to show TLE details & history

TLE from 4 months ago
0 OBJECT F
1 51829U 22019F   24257.89891422  .17016459  26093-5  24644-3 0  9993
2 51829  97.3972 344.8493 0011072 260.7498  99.2554 16.48290570141761
Epoch: 2024-09-13T21:34Z
Definitive object data (Epoch: 2024-09-13T21:34:26.188Z)
Latitude-0°
Longitude27.87581°
Altitude148.273 km
Speed7.816 km/s
True Right ascension22h 59m 23s
True Declination0° 00' 00"
Sunlit
Object was in full shadow at TLE epoch
Visualization observer readout
Observer readout values are unavailable because the object's trajectory could not be propagated. This is usually caused when the trajectory data is faulty or the object's orbit has decayed.
Visualization observer readout
Observer readout values are unavailable because the object's trajectory could not be propagated. This is usually caused when the trajectory data is faulty or the object's orbit has decayed.
Orbital elements
Apogee altitude147.855 km
Perigee altitude133.42 km
Semi-major axis6,518.775 km
Eccentricity0.0011072
Inclination97.3972°
RAAN344.8493°
Arg. of periapsis260.7498°
True anomaly99.3806°
Mean anomaly99.2554°
Eccentric anomaly99.318°
Mean motion4.12377 °/min
BSTAR0.00024644
Orbital period87.3 mins
Loading maneuver chart data...
Loading historical data...
Loading historical data...
Loading historical data...
Loading historical data...
Loading historical data...
Loading historical data...
Loading historical data...

OBJECT F Visibility forecast

Observer location: undefined°, undefined

This satellite is decayed
Span
Click to sort rows by Start time (UTC) header in descending order
Start Az.
Max El. time (UTC)
Max El. Az.
Max El.
End time (UTC)
End Az.
|